#timestamp,LO_Frequency,Hit,StdDev 
1506186015.5,286047017.5,Y
1506186035.4,286047007.2,P
1506186055.2,286047003.7,N
1506186075.0,286047004.9,N
1506186075.9,286047004.9,N
1506186095.8,286047005.4,N
1506186115.6,286047005.6,N
1506186135.4,286047005.7,N
1506186155.3,286047006.0,N
1506186175.1,286047004.6,N
1506186176.0,286047004.6,N
1506186195.8,286047004.8,N
1506186215.7,286047004.7,N
1506186235.5,286047006.6,N
1506186255.3,286047006.5,N
1506186275.1,286047005.4,N
1506186295.9,286047005.9,N
1506186315.7,286047004.9,N
1506186335.5,286047010.6,Y
1506186355.4,286047004.5,P
1506186375.2,286047004.5,P
1506186395.0,286047004.7,P
1506186396.0,286047004.7,Y
1506186415.8,286047000.5,P
1506186435.6,286046998.6,N
1506186455.5,286047002.6,N
1506186475.3,286047002.3,N
1506186495.1,286047000.9,N
1506186515.8,286047000.9,N
1506186535.7,286047004.4,N
1506186555.5,286047002.0,N
1506186575.3,286047001.2,N
1506186595.2,286046994.9,N
1506186615.9,286046994.2,N
1506186635.7,286046993.2,N
1506186655.6,286046989.5,N
1506186675.4,286046987.7,N
1506186695.2,286046986.1,N
1506186715.1,286046986.3,N
1506186716.0,286046986.3,N
1506186735.8,286046986.8,N
1506186755.6,286046985.2,N
1506186775.4,286046980.7,N
1506186795.3,286046981.7,N
1506186815.1,286046978.9,N
1506186835.8,286046979.4,N
1506186855.7,286046978.1,N
1506186875.5,286046978.4,N
1506186895.3,286046978.8,N
1506186915.2,286046975.8,N
1506186935.9,286046977.0,N
1506186955.7,286046974.8,N
1506186975.6,286046976.5,N
1506186995.4,286046976.9,N
1506187015.2,286046975.3,N
1506187035.1,286046976.5,N
1506187036.0,286046976.5,N
1506187055.8,286046975.0,N
1506187075.6,286046973.7,N
1506187095.5,286046974.0,Y
1506187115.3,286046987.1,P
1506187135.1,286046986.9,P
1506187155.9,286046989.6,P
1506187175.7,286046989.4,Y
1506187195.5,286047000.6,P
1506187215.4,286046999.7,N
1506187235.2,286047001.5,N
1506187255.0,286047000.0,N
1506187255.9,286047000.0,N
1506187275.8,286047000.8,N
1506187295.6,286047002.0,N
1506187315.4,286047000.0,N
1506187335.3,286047001.0,N
1506187355.1,286047000.2,N
1506187356.0,286047000.2,N
1506187375.8,286047000.7,N
1506187395.6,286047000.7,N
1506187415.5,286046999.9,N
1506187435.3,286047004.4,N
1506187455.1,286047003.1,N
1506187475.9,286047004.0,N
1506187495.7,286047000.3,N
1506187515.5,286047000.9,N
1506187535.4,286046998.5,N
1506187555.2,286046999.6,N
1506187575.0,286046999.5,N
1506187575.9,286046999.5,N
1506187595.8,286046999.4,N
1506187615.6,286046997.3,N
1506187635.4,286046996.1,N
1506187655.3,286046995.7,N
1506187675.1,286046993.8,N
1506187676.0,286046993.8,N
1506187695.8,286046993.4,N
1506187715.6,286046997.8,N
1506187735.5,286046994.9,N
1506187755.3,286046995.7,N
1506187775.1,286046996.5,N
1506187795.9,286046996.8,N
1506187815.7,286046997.6,N
1506187835.5,286046997.5,N
1506187855.4,286046996.8,N
1506187875.2,286046997.6,N
1506187895.0,286046998.0,N
1506187895.9,286046998.0,N
1506187915.8,286046996.2,N
1506187935.6,286046994.8,N
1506187955.4,286046994.1,N
1506187975.3,286046988.7,Y
1506187995.1,286046993.4,P
1506188015.8,286046996.6,N
1506188035.7,286047000.2,N
1506188055.5,286047003.7,N
1506188075.3,286047008.4,N
1506188095.2,286047014.0,N
1506188115.9,286047018.1,N
1506188135.7,286047018.8,N
1506188155.5,286047021.7,N
1506188175.4,286047024.4,N
1506188195.2,286047023.9,N
1506188215.0,286047028.3,N
1506188215.9,286047028.3,N
1506188235.8,286047025.5,N
1506188255.6,286047027.2,N
1506188275.4,286047027.0,N
1506188295.3,286047032.2,N
1506188315.1,286047028.6,N
1506188316.0,286047028.6,N
1506188335.8,286047027.1,N
1506188355.7,286047031.5,N
1506188375.5,286047033.3,N
1506188395.3,286047031.9,N
1506188415.2,286047033.9,N
1506188435.9,286047032.4,N
1506188455.7,286047036.3,N
1506188475.5,286047036.0,N
1506188495.4,286047039.2,Y
1506188515.2,286047014.9,P
1506188535.0,286047012.5,P
1506188536.0,286047012.5,P
1506188555.8,286047015.6,Y
1506188575.6,286046997.5,P
1506188595.5,286047000.8,N
1506188615.3,286047002.7,N
1506188635.1,286047002.8,N
1506188655.9,286047000.1,N
1506188675.7,286047003.6,N
1506188695.5,286047003.1,N
1506188715.3,286047005.7,N
1506188735.2,286046999.7,N
1506188755.9,286047002.7,N
1506188775.7,286047007.1,N
1506188795.6,286047005.6,N
1506188815.4,286047000.5,N
1506188835.2,286046996.7,N
1506188855.1,286046995.5,N
1506188856.0,286046995.5,N
1506188875.8,286046992.1,N
1506188895.6,286046992.4,N
1506188915.5,286046989.0,N
1506188935.3,286046988.0,N
1506188955.1,286046987.6,N
1506188975.8,286046985.5,N
1506188995.7,286046986.7,N
1506189015.5,286046984.4,N
1506189035.3,286046983.4,N
1506189055.2,286046981.6,N
1506189075.9,286046982.0,N
1506189095.7,286046980.3,N
1506189115.6,286046980.2,N
1506189135.4,286046978.7,N
1506189155.2,286046977.0,N
1506189175.1,286046976.8,N
1506189176.0,286046976.8,N
1506189195.8,286046974.9,N
1506189215.6,286046976.8,N
1506189235.5,286046976.7,N
1506189255.3,286046972.9,N
1506189275.1,286046972.8,N
1506189295.9,286046973.2,N
1506189315.7,286046971.8,N
1506189335.5,286046969.5,Y
1506189355.4,286046984.1,P
1506189375.2,286046985.7,P
1506189395.0,286046986.0,P
1506189395.9,286046986.0,Y
1506189415.8,286047002.5,P
1506189435.6,286047002.1,N
1506189455.4,286047002.3,N
1506189475.3,286047002.4,N
1506189495.1,286046998.4,N
1506189496.0,286046998.4,N
1506189515.8,286046996.6,N
1506189535.7,286046995.4,N
1506189555.5,286046997.8,N
1506189575.3,286046997.1,N
1506189595.1,286046998.8,N
